Air Resources Laboratory banner image
Air Resources Laboratory web site National Oceanic and Atmospheric Administration (NOAA)

sd roundup


Office: FSD

ASUS63 KFSD 220100
RTPFSD
Max/Min Temperature and Precipitation Table For
SE South Dakota/SW Minnesota/NW Iowa/NE Nebraska
National Weather Service Sioux Falls SD
800 PM CDT Sun Oct 21 2018

Values represent Lows over the last 18 hours...
Highs over the last 18 hours and Precipitation over the
last 24 hours

.BR FSD 1021 C DH19/TAIRZSZ/TAIRZIZ/PPDRZZZ
:
:                       MAX     MIN
:ID    LOCATION         TEMP    TEMP     PCPN
:
: Southeast South Dakota...
:
BKX :Brookings SD   :    62  /   26   /   0.00
9V9 :Chamberlain SD :    68  /   35   /   0.00
HON :Huron SD       :    63  /   32   /   0.00
MHE :Mitchell SD    :    65  /   32   /   0.00
MDS :Madison SD     :    61  /   27   /   0.00
FSD :Sioux Falls SD :    66  /   31   /   0.00
YKN :Yankton SD     :    67  /   28   /   0.00
:
: Southwest Minnesota...
:
LYV :Luverne MN     :    63  /   23   /   0.00
DVP :Slayton MN     :    61  /   23   /   0.00
MJQ :Jackson MN     :    61  /   27   /   0.00
MML :Marshall MN    :    61  /   27   /   0.00
PQN :Pipestone MN   :    63  /   28   /   0.00
TKC :Tracy MN       :    63  /   29   /   0.00
MWM :Windom MN      :     M  /    M   /   0.00
OTG :Worthington MN :    61  /   28   /   0.00
:
: Northwest Iowa...
:
CKP :Cherokee IA    :    65  /   26   /   0.00
LRJ :Le Mars IA     :    68  /   27   /   0.00
ORC :Orange City IA :    66  /   30   /   0.00
SHL :Sheldon IA     :    64  /   30   /   0.00
SUX :Sioux City IA  :    72  /   26   /   0.00
SPW :Spencer IA     :    65  /   24   /   0.00
SLB :Storm Lake IA  :    63  /   27   /   0.00
.End

These data are preliminary and have not undergone final quality
control by the National Climatic Data Center /NCDC/. Therefore...
these data are subject to revision. Final and certified climate data
can be accessed at www.ncdc.noaa.gov.

$$


ASUS43 KFSD 220102
RWRSD

WEATHER ROUNDUP FOR SOUTH DAKOTA
NATIONAL WEATHER SERVICE SIOUX FALLS SD
800 PM CDT SUN OCT 21 2018

NOTE: "FAIR" INDICATES FEW OR NO CLOUDS BELOW 12,000 FEET WITH NO
SIGNIFICANT WEATHER AND/OR OBSTRUCTIONS TO VISIBILITY.


SDZ001>005-009-010-012>017-220200-
NORTHWEST AND NORTH CENTRAL SOUTH DAKOTA

CITY           SKY/WX    TMP DP  RH WIND       PRES   REMARKS
BUFFALO          N/A     57  18  21 E9        30.04S
MOBRIDGE       CLEAR     43  31  62 N6        30.05R
$$

SDZ012>016-024>037-041>051-057-063-072>074-220200-
SOUTHWEST AND SOUTH CENTRAL SOUTH DAKOTA

CITY           SKY/WX    TMP DP  RH WIND       PRES   REMARKS
RAPID CTY ARPT CLEAR     50  30  46 E8        30.08R
PIERRE         CLEAR     53  31  42 N10       30.05R
CUSTER         PTCLDY    47  31  53 CALM      30.14S
ELLSWORTH AFB  CLEAR     56  29  36 E3        30.08R
PHILIP         CLEAR     52  28  39 NE9       30.06R
PINE RIDGE     CLEAR     49  37  63 NE7       30.08R
SPEARFISH      FAIR      48  32  53 CALM      30.09R
WINNER         FAIR      53  36  52 CALM      30.06R
$$

SDZ004>011-016>023-039-040-220200-
NORTHEAST SOUTH DAKOTA

CITY           SKY/WX    TMP DP  RH WIND       PRES   REMARKS
ABERDEEN       PTCLDY    42  27  55 CALM      30.05R
WATERTOWN      CLOUDY    39  30  70 N3        30.03R
BROOKINGS      CLEAR     43  32  65 NW7       30.04R
SISSETON         N/A     43  29  57 W6        30.02R
$$

SDZ017-020-022-023-036>040-048>070-220200-
SOUTHEAST SOUTH DAKOTA

CITY           SKY/WX    TMP DP  RH WIND       PRES   REMARKS
SIOUX FALLS    PTCLDY    50  37  61 N6        30.02R
HURON          CLEAR     45  29  53 CALM      30.05R
MITCHELL       CLEAR     51  34  52 NW6       30.05R
YANKTON        CLEAR     52  39  61 NW9       30.02R
$$

ABBREVIATIONS USED IN REMARKS
   TC - TEMPERATURE IN CELSIUS
  WCI - WIND CHILL INDEX
   HX - HEAT INDEX
  VSB - VISIBILITY



ASUS43 KFSD 220102
RWRFSD

WEATHER ROUNDUP FOR SE SOUTH DAKOTA/SW MINNESOTA/NW IOWA
NATIONAL WEATHER SERVICE SIOUX FALLS SD
800 PM CDT SUN OCT 21 2018

NOTE: "FAIR" INDICATES FEW OR NO CLOUDS BELOW 12,000 FEET WITH NO
SIGNIFICANT WEATHER AND OR OBSTRUCTIONS TO VISIBILITY.


SDZ038>040-050-052>070-220200-
SOUTHEAST SOUTH DAKOTA

CITY           SKY/WX    TMP DP  RH WIND       PRES   REMARKS
BROOKINGS      CLEAR     43  32  65 NW7       30.04R
CHAMBERLAIN    NOT AVBL
HURON          CLEAR     45  29  53 CALM      30.05R
MADISON        FAIR      43  32  65 N7        30.04R
MITCHELL       CLEAR     51  34  52 NW6       30.05R
SIOUX FALLS    PTCLDY    50  37  61 N6        30.02R
WINNER         FAIR      53  36  52 CALM      30.06R
YANKTON        CLEAR     52  39  61 NW9       30.02R
$$

MNZ071-072-080-081-089-090-097-098-220200-
SOUTHWEST MINNESOTA

CITY           SKY/WX    TMP DP  RH WIND       PRES   REMARKS
FAIRMONT       CLEAR     46  33  60 W3        30.01
JACKSON        CLEAR     46  32  57 CALM      30.02R
LUVERNE        CLEAR     46  34  61 N5        30.02S
MARSHALL       CLEAR     41  30  65 W7        30.03R
MONTEVIDEO     CLEAR     48  28  46 N3        30.03R
PIPESTONE      CLEAR     52  36  54 N3        30.03R
REDWOOD FALLS  CLEAR     50  33  52 NW6       30.01R
TRACY          CLEAR     49  34  57 NW6       30.02R
WORTHINGTON    CLEAR     43  34  70 W6        30.03R
$$

IAZ001>003-012>014-020>022-031-032-NEZ013-014-SDZ071-220200-
NORTHWEST IOWA

CITY           SKY/WX    TMP DP  RH WIND       PRES   REMARKS
CHEROKEE       CLEAR     46  38  75 CALM      30.01R
DENISON        CLEAR     52  39  62 E5        30.02R
ESTHERVILLE    CLEAR     44  33  65 NW6       30.01R
ORANGE CITY    CLEAR     57  37  47 CALM      30.01R
SHELDON          N/A     43  36  75 CALM      30.00R
SIOUX CITY     CLEAR     52  40  63 N7        30.01R
SPENCER        CLEAR     47  36  65 N7        30.01R
STORM LAKE     CLEAR     50  36  57 CALM      30.01R
$$

ABBREVIATIONS USED IN REMARKS
   TC - TEMPERATURE IN CELSIUS
  WCI - WIND CHILL INDEX
   HX - HEAT INDEX
  VSB - VISIBILITY



ASUS43 KFSD 220110
RWRFSD

WEATHER ROUNDUP FOR SE SOUTH DAKOTA/SW MINNESOTA/NW IOWA
NATIONAL WEATHER SERVICE SIOUX FALLS SD
800 PM CDT SUN OCT 21 2018

NOTE: "FAIR" INDICATES FEW OR NO CLOUDS BELOW 12,000 FEET WITH NO
SIGNIFICANT WEATHER AND OR OBSTRUCTIONS TO VISIBILITY.


SDZ038>040-050-052>070-220200-
SOUTHEAST SOUTH DAKOTA

CITY           SKY/WX    TMP DP  RH WIND       PRES   REMARKS
BROOKINGS      CLEAR     43  32  65 NW7       30.04R
CHAMBERLAIN    CLEAR     52  33  47 E3        30.06R
HURON          CLEAR     45  29  53 CALM      30.05R
MADISON        FAIR      43  32  65 N7        30.04R
MITCHELL       CLEAR     51  34  52 NW6       30.05R
SIOUX FALLS    PTCLDY    50  37  61 N6        30.02R
WINNER         FAIR      53  36  52 CALM      30.06R
YANKTON        CLEAR     52  39  61 NW9       30.02R
$$

MNZ071-072-080-081-089-090-097-098-220200-
SOUTHWEST MINNESOTA

CITY           SKY/WX    TMP DP  RH WIND       PRES   REMARKS
FAIRMONT       CLEAR     46  33  60 W3        30.01
JACKSON        CLEAR     46  32  57 CALM      30.02R
LUVERNE        CLEAR     46  34  61 N5        30.02S
MARSHALL       CLEAR     41  30  65 W7        30.03R
MONTEVIDEO     CLEAR     48  28  46 N3        30.03R
PIPESTONE      CLEAR     52  36  54 N3        30.03R
REDWOOD FALLS  CLEAR     50  33  52 NW6       30.01R
TRACY          CLEAR     49  34  57 NW6       30.02R
WORTHINGTON    CLEAR     43  34  70 W6        30.03R
$$

IAZ001>003-012>014-020>022-031-032-NEZ013-014-SDZ071-220200-
NORTHWEST IOWA

CITY           SKY/WX    TMP DP  RH WIND       PRES   REMARKS
CHEROKEE       CLEAR     46  38  75 CALM      30.01R
DENISON        CLEAR     52  39  62 E5        30.02R
ESTHERVILLE    CLEAR     44  33  65 NW6       30.01R
ORANGE CITY    CLEAR     57  37  47 CALM      30.01R
SHELDON          N/A     43  36  75 CALM      30.00R
SIOUX CITY     CLEAR     52  40  63 N7        30.01R
SPENCER        CLEAR     47  36  65 N7        30.01R
STORM LAKE     CLEAR     50  36  57 CALM      30.01R
$$

ABBREVIATIONS USED IN REMARKS
   TC - TEMPERATURE IN CELSIUS
  WCI - WIND CHILL INDEX
   HX - HEAT INDEX
  VSB - VISIBILITY



ASUS43 KFSD 220110
RWRSD

WEATHER ROUNDUP FOR SOUTH DAKOTA
NATIONAL WEATHER SERVICE SIOUX FALLS SD
800 PM CDT SUN OCT 21 2018

NOTE: "FAIR" INDICATES FEW OR NO CLOUDS BELOW 12,000 FEET WITH NO
SIGNIFICANT WEATHER AND/OR OBSTRUCTIONS TO VISIBILITY.


SDZ001>005-009-010-012>017-220200-
NORTHWEST AND NORTH CENTRAL SOUTH DAKOTA

CITY           SKY/WX    TMP DP  RH WIND       PRES   REMARKS
BUFFALO          N/A     57  18  21 E9        30.04S
MOBRIDGE       CLEAR     43  31  62 N6        30.05R
$$

SDZ012>016-024>037-041>051-057-063-072>074-220200-
SOUTHWEST AND SOUTH CENTRAL SOUTH DAKOTA

CITY           SKY/WX    TMP DP  RH WIND       PRES   REMARKS
RAPID CTY ARPT CLEAR     50  30  46 E8        30.08R
PIERRE         CLEAR     53  31  42 N10       30.05R
CUSTER         PTCLDY    47  31  53 CALM      30.14S
ELLSWORTH AFB  CLEAR     56  29  36 E3        30.08R
PHILIP         CLEAR     52  28  39 NE9       30.06R
PINE RIDGE     CLEAR     49  37  63 NE7       30.08R
SPEARFISH      FAIR      48  32  53 CALM      30.09R
WINNER         FAIR      53  36  52 CALM      30.06R
$$

SDZ004>011-016>023-039-040-220200-
NORTHEAST SOUTH DAKOTA

CITY           SKY/WX    TMP DP  RH WIND       PRES   REMARKS
ABERDEEN       PTCLDY    42  27  55 CALM      30.05R
WATERTOWN      CLOUDY    39  30  70 N3        30.03R
BROOKINGS      CLEAR     43  32  65 NW7       30.04R
SISSETON         N/A     43  29  57 W6        30.02R
$$

SDZ017-020-022-023-036>040-048>070-220200-
SOUTHEAST SOUTH DAKOTA

CITY           SKY/WX    TMP DP  RH WIND       PRES   REMARKS
SIOUX FALLS    PTCLDY    50  37  61 N6        30.02R
HURON          CLEAR     45  29  53 CALM      30.05R
CHAMBERLAIN    CLEAR     52  33  47 E3        30.06R
MITCHELL       CLEAR     51  34  52 NW6       30.05R
YANKTON        CLEAR     52  39  61 NW9       30.02R
$$

ABBREVIATIONS USED IN REMARKS
   TC - TEMPERATURE IN CELSIUS
  WCI - WIND CHILL INDEX
   HX - HEAT INDEX
  VSB - VISIBILITY



ASUS63 KFSD 220114
RTPFSD
Max/Min Temperature and Precipitation Table For
SE South Dakota/SW Minnesota/NW Iowa/NE Nebraska
National Weather Service Sioux Falls SD
814 PM CDT Sun Oct 21 2018

Values represent Lows over the last 18 hours...
Highs over the last 18 hours and Precipitation over the
last 24 hours

.BR FSD 1021 C DH19/TAIRZSZ/TAIRZIZ/PPDRZZZ
:
:                       MAX     MIN
:ID    LOCATION         TEMP    TEMP     PCPN
:
: Southeast South Dakota...
:
BKX :Brookings SD   :    62  /   26   /      M
9V9 :Chamberlain SD :    68  /   35   /   0.00
HON :Huron SD       :    63  /   32   /   0.00
MHE :Mitchell SD    :    65  /   32   /   0.00
MDS :Madison SD     :    61  /   27   /   0.00
FSD :Sioux Falls SD :    66  /   31   /   0.00
YKN :Yankton SD     :    67  /   28   /   0.00
:
: Southwest Minnesota...
:
LYV :Luverne MN     :    63  /   23   /   0.00
DVP :Slayton MN     :    61  /   25   /   0.00
MJQ :Jackson MN     :    61  /   27   /   0.00
MML :Marshall MN    :    61  /   27   /   0.00
PQN :Pipestone MN   :    63  /   28   /   0.00
TKC :Tracy MN       :    63  /   29   /   0.00
MWM :Windom MN      :     M  /    M   /   0.00
OTG :Worthington MN :    61  /   28   /   0.00
:
: Northwest Iowa...
:
CKP :Cherokee IA    :    65  /   26   /   0.00
LRJ :Le Mars IA     :    68  /   27   /   0.00
ORC :Orange City IA :    66  /   30   /   0.00
SHL :Sheldon IA     :    64  /   27   /   0.00
SUX :Sioux City IA  :    72  /   26   /   0.00
SPW :Spencer IA     :    65  /   24   /   0.00
SLB :Storm Lake IA  :    63  /   27   /   0.00
.End

These data are preliminary and have not undergone final quality
control by the National Climatic Data Center /NCDC/. Therefore...
these data are subject to revision. Final and certified climate data
can be accessed at www.ncdc.noaa.gov.

$$


ASUS63 KFSD 220119
RTPSD
Max/Min Temperature and Precipitation Table For SD
National Weather Service Sioux Falls SD
819 PM CDT Sun Oct 21 2018

Values represent Lows over the last 18 hours...
Highs over the last 18 hours and Precipitation over the
last 24 hours

.BR FSD 1021 C DH19/TAIRZSZ/TAIRZIZ/PPDRZZZ
:
: Locations in Central Time Zone...
:
:                         MAX     MIN
:ID    LOCATION           TEMP    TEMP     PCPN
:
ABR  : Aberdeen WFO     :  64  /   28  /   0.00
BKX  : Brookings        :  62  /   26  /      M
9V9  : Chamberlain      :  68  /   35  /   0.00
HON  : Huron Airport    :  63  /   32  /   0.00
MDS  : Madison AWOS     :  61  /   27  /   0.00
MHE  : Mitchell ASOS    :  65  /   32  /   0.00
MBG  : Mobridge AP      :  65  /   30  /   0.00
PIR  : Pierre Regional A:  69  /   32  /   0.00
FSD  : Sioux Falls Airpo:  66  /   31  /   0.00
8D3  : Sisseton AP      :  60  /   23  /   0.00
ATY  : Watertown Regiona:  60  /   26  /   0.00
ICR  : Winner AP        :  70  /   45  /   0.00
YKN  : Yankton AWOS     :  67  /   28  /   0.00

.End

.BR FSD 1021 M DH18/TAIRZSZ/TAIRZIZ/PPDRZZZ
:
: Locations in Mountain Time Zone...
:
:                         MAX     MIN
:ID    LOCATION           TEMP    TEMP     PCPN
:
2WX  : Buffalo          :  65  /   36  /   0.00
CUT  : Custer AP        :  65  /   38  /   0.00
D07  : Faith AP         :  65  /   35  /   0.00
PHP  : Philip AP        :  69  /   35  /   0.00
IEN  : Pine Ridge AP    :  71  /   38  /   0.00
UNRS2: Rapid City NWS   :  64  /   44  /   0.00
RAP  : Rapid City AP    :  67  /   37  /   0.00

.End

These data are preliminary and have not undergone final quality
control by the National Climatic Data Center /NCDC/. Therefore...
these data are subject to revision. Final and certified climate data
can be accessed at www.ncdc.noaa.gov.

$$